Time,TemperatureF,DewpointF,PressureIn,WindDirection,WindDirectionDegrees,WindSpeedMPH,WindSpeedGustMPH,Humidity,HourlyPrecipIn,Conditions,Clouds,dailyrainin,SolarRadiationWatts/m^2,SoftwareType,DateUTC
2013-05-26 00:03:00,80.0,67.0,-100.00,ENE,77,12.0,21.0,64,0.00,,,0.04,0.000000,,2013-05-26 04:03:00,
2013-05-26 00:13:00,80.0,67.0,-100.00,ENE,77,12.0,21.0,64,0.00,,,0.04,0.000000,,2013-05-26 04:13:00,
2013-05-26 00:23:00,80.0,67.0,-100.00,ENE,77,12.0,21.0,64,0.00,,,0.04,0.000000,,2013-05-26 04:23:00,
2013-05-26 00:33:00,80.0,67.0,-100.00,ENE,77,12.0,21.0,64,0.00,,,0.04,0.000000,,2013-05-26 04:33:00,
2013-05-26 01:02:00,80.0,67.0,-100.00,East,79,12.0,23.0,64,0.00,,,0.04,0.000000,,2013-05-26 05:02:00,
2013-05-26 01:12:00,80.0,67.0,-100.00,East,79,12.0,23.0,64,0.00,,,0.04,0.000000,,2013-05-26 05:12:00,
2013-05-26 01:22:00,80.0,67.0,-100.00,East,79,12.0,23.0,64,0.00,,,0.04,0.000000,,2013-05-26 05:22:00,
2013-05-26 01:32:00,80.0,67.0,-100.00,East,79,12.0,23.0,64,0.00,,,0.04,0.000000,,2013-05-26 05:32:00,
2013-05-26 01:52:00,80.0,67.0,-100.00,East,83,12.0,22.0,65,0.00,,,0.04,0.000000,,2013-05-26 05:52:00,
2013-05-26 02:01:00,80.0,67.0,-100.00,East,83,12.0,22.0,65,0.00,,,0.04,0.000000,,2013-05-26 06:01:00,
2013-05-26 02:12:00,80.0,67.0,-100.00,East,83,12.0,22.0,65,0.00,,,0.04,0.000000,,2013-05-26 06:12:00,
2013-05-26 02:22:00,80.0,67.0,-100.00,East,83,12.0,22.0,65,0.00,,,0.04,0.000000,,2013-05-26 06:22:00,
2013-05-26 02:32:00,80.0,67.0,-100.00,East,83,12.0,22.0,65,0.00,,,0.04,0.000000,,2013-05-26 06:32:00,
2013-05-26 03:02:00,79.0,68.0,-100.00,East,83,11.0,18.0,68,0.00,,,0.04,0.000000,,2013-05-26 07:02:00,
2013-05-26 03:11:00,79.0,68.0,-100.00,East,83,11.0,18.0,68,0.00,,,0.04,0.000000,,2013-05-26 07:11:00,
2013-05-26 03:22:00,79.0,68.0,-100.00,East,83,11.0,18.0,68,0.00,,,0.04,0.000000,,2013-05-26 07:22:00,
2013-05-26 03:32:00,79.0,68.0,-100.00,East,83,11.0,18.0,68,0.00,,,0.04,0.000000,,2013-05-26 07:32:00,
2013-05-26 04:02:00,79.0,68.0,-100.00,East,90,9.0,19.0,68,0.00,,,0.04,0.000000,,2013-05-26 08:02:00,
2013-05-26 04:12:00,79.0,68.0,-100.00,East,90,9.0,19.0,68,0.00,,,0.04,0.000000,,2013-05-26 08:12:00,
2013-05-26 04:21:00,79.0,68.0,-100.00,East,90,9.0,19.0,68,0.00,,,0.04,0.000000,,2013-05-26 08:21:00,
2013-05-26 04:32:00,79.0,68.0,-100.00,East,90,9.0,19.0,68,0.00,,,0.04,0.000000,,2013-05-26 08:32:00,
2013-05-26 04:53:00,79.0,66.0,-100.00,ENE,77,9.0,17.0,65,0.00,,,0.04,0.000000,,2013-05-26 08:53:00,
2013-05-26 05:01:00,79.0,66.0,-100.00,ENE,77,9.0,17.0,65,0.00,,,0.04,0.000000,,2013-05-26 09:01:00,
2013-05-26 05:11:00,79.0,66.0,-100.00,ENE,77,9.0,17.0,65,0.00,,,0.04,0.000000,,2013-05-26 09:11:00,
2013-05-26 05:22:00,79.0,66.0,-100.00,ENE,77,9.0,17.0,65,0.00,,,0.04,0.000000,,2013-05-26 09:22:00,
2013-05-26 05:33:00,79.0,66.0,-100.00,ENE,77,9.0,17.0,65,0.00,,,0.04,0.000000,,2013-05-26 09:33:00,
2013-05-26 05:53:00,78.0,66.0,-100.00,ENE,76,8.0,16.0,67,0.00,,,0.04,0.000000,,2013-05-26 09:53:00,
2013-05-26 06:03:00,78.0,66.0,-100.00,ENE,76,8.0,16.0,67,0.00,,,0.04,0.000000,,2013-05-26 10:03:00,
2013-05-26 06:12:00,78.0,66.0,-100.00,ENE,76,8.0,16.0,67,0.00,,,0.04,0.000000,,2013-05-26 10:12:00,
2013-05-26 06:23:00,78.0,66.0,-100.00,ENE,76,8.0,16.0,67,0.00,,,0.04,0.000000,,2013-05-26 10:23:00,
2013-05-26 06:33:00,78.0,66.0,-100.00,ENE,76,8.0,16.0,67,0.00,,,0.04,0.000000,,2013-05-26 10:33:00,
2013-05-26 06:52:00,78.0,67.0,-100.00,ENE,68,7.0,15.0,68,0.00,,,0.04,1.000000,,2013-05-26 10:52:00,
2013-05-26 07:03:00,78.0,67.0,-100.00,ENE,68,7.0,15.0,68,0.00,,,0.04,1.000000,,2013-05-26 11:03:00,
2013-05-26 07:11:00,78.0,67.0,-100.00,ENE,68,7.0,15.0,68,0.00,,,0.04,1.000000,,2013-05-26 11:11:00,
2013-05-26 07:22:00,78.0,67.0,-100.00,ENE,68,7.0,15.0,68,0.00,,,0.04,1.000000,,2013-05-26 11:22:00,
2013-05-26 07:32:00,78.0,67.0,-100.00,ENE,68,7.0,15.0,68,0.00,,,0.04,1.000000,,2013-05-26 11:32:00,
2013-05-26 07:52:00,79.0,65.0,-100.00,ENE,66,9.0,16.0,63,0.00,,,0.04,53.000000,,2013-05-26 11:52:00,
2013-05-26 08:02:00,79.0,65.0,-100.00,ENE,66,9.0,16.0,63,0.00,,,0.04,53.000000,,2013-05-26 12:02:00,
2013-05-26 08:12:00,79.0,65.0,-100.00,ENE,66,9.0,16.0,63,0.00,,,0.04,53.000000,,2013-05-26 12:12:00,
2013-05-26 08:22:00,79.0,65.0,-100.00,ENE,66,9.0,16.0,63,0.00,,,0.04,53.000000,,2013-05-26 12:22:00,
2013-05-26 08:32:00,79.0,65.0,-100.00,ENE,66,9.0,16.0,63,0.00,,,0.04,53.000000,,2013-05-26 12:32:00,
2013-05-26 08:52:00,82.0,65.0,-100.00,ENE,68,8.0,15.0,56,0.00,,,0.04,239.000000,,2013-05-26 12:52:00,
2013-05-26 09:02:00,82.0,65.0,-100.00,ENE,68,8.0,15.0,56,0.00,,,0.04,239.000000,,2013-05-26 13:02:00,
2013-05-26 09:11:00,82.0,65.0,-100.00,ENE,68,8.0,15.0,56,0.00,,,0.04,239.000000,,2013-05-26 13:11:00,
2013-05-26 09:22:00,82.0,65.0,-100.00,ENE,68,8.0,15.0,56,0.00,,,0.04,239.000000,,2013-05-26 13:22:00,
2013-05-26 09:32:00,82.0,65.0,-100.00,ENE,68,8.0,15.0,56,0.00,,,0.04,239.000000,,2013-05-26 13:32:00,
2013-05-26 10:02:00,84.0,64.0,-100.00,ENE,75,6.0,16.0,52,0.00,,,0.04,449.000000,,2013-05-26 14:02:00,
2013-05-26 10:11:00,84.0,64.0,-100.00,ENE,75,6.0,16.0,52,0.00,,,0.04,449.000000,,2013-05-26 14:11:00,
2013-05-26 10:22:00,84.0,64.0,-100.00,ENE,75,6.0,16.0,52,0.00,,,0.04,449.000000,,2013-05-26 14:22:00,
2013-05-26 10:32:00,84.0,64.0,-100.00,ENE,75,6.0,16.0,52,0.00,,,0.04,449.000000,,2013-05-26 14:32:00,
2013-05-26 11:02:00,84.0,66.0,-100.00,NE,54,7.0,14.0,55,0.00,,,0.04,634.000000,,2013-05-26 15:02:00,
2013-05-26 11:12:00,84.0,66.0,-100.00,NE,54,7.0,14.0,55,0.00,,,0.04,634.000000,,2013-05-26 15:12:00,
2013-05-26 11:22:00,84.0,66.0,-100.00,NE,54,7.0,14.0,55,0.00,,,0.04,634.000000,,2013-05-26 15:22:00,
2013-05-26 11:33:00,84.0,66.0,-100.00,NE,54,7.0,14.0,55,0.00,,,0.04,634.000000,,2013-05-26 15:33:00,
2013-05-26 11:53:00,86.0,65.0,-100.00,ENE,67,7.0,13.0,49,0.00,,,0.04,783.000000,,2013-05-26 15:53:00,
2013-05-26 12:03:00,86.0,65.0,-100.00,ENE,67,7.0,13.0,49,0.00,,,0.04,783.000000,,2013-05-26 16:03:00,
2013-05-26 12:12:00,86.0,65.0,-100.00,ENE,67,7.0,13.0,49,0.00,,,0.04,783.000000,,2013-05-26 16:12:00,
2013-05-26 12:23:00,86.0,65.0,-100.00,ENE,67,7.0,13.0,49,0.00,,,0.04,783.000000,,2013-05-26 16:23:00,
2013-05-26 12:33:00,86.0,65.0,-100.00,ENE,67,7.0,13.0,49,0.00,,,0.04,783.000000,,2013-05-26 16:33:00,
2013-05-26 12:53:00,87.0,64.0,-100.00,ENE,70,8.0,14.0,47,0.00,,,0.04,877.000000,,2013-05-26 16:53:00,
2013-05-26 13:02:00,87.0,64.0,-100.00,ENE,70,8.0,14.0,47,0.00,,,0.04,877.000000,,2013-05-26 17:02:00,
2013-05-26 13:11:00,87.0,64.0,-100.00,ENE,70,8.0,14.0,47,0.00,,,0.04,877.000000,,2013-05-26 17:11:00,
2013-05-26 13:23:00,87.0,64.0,-100.00,ENE,70,8.0,14.0,47,0.00,,,0.04,877.000000,,2013-05-26 17:23:00,
2013-05-26 13:32:00,87.0,64.0,-100.00,ENE,70,8.0,14.0,47,0.00,,,0.04,877.000000,,2013-05-26 17:32:00,
2013-05-26 13:52:00,88.0,61.0,-100.00,ENE,57,7.0,13.0,41,0.00,,,0.04,879.000000,,2013-05-26 17:52:00,
2013-05-26 14:01:00,88.0,61.0,-100.00,ENE,57,7.0,13.0,41,0.00,,,0.04,879.000000,,2013-05-26 18:01:00,
2013-05-26 14:12:00,88.0,61.0,-100.00,ENE,57,7.0,13.0,41,0.00,,,0.04,879.000000,,2013-05-26 18:12:00,
2013-05-26 14:22:00,88.0,61.0,-100.00,ENE,57,7.0,13.0,41,0.00,,,0.04,879.000000,,2013-05-26 18:22:00,
2013-05-26 14:32:00,88.0,61.0,-100.00,ENE,57,7.0,13.0,41,0.00,,,0.04,879.000000,,2013-05-26 18:32:00,
2013-05-26 15:01:00,87.0,64.0,-100.00,East,81,10.0,17.0,46,0.00,,,0.04,781.000000,,2013-05-26 19:01:00,
2013-05-26 15:11:00,87.0,64.0,-100.00,East,81,10.0,17.0,46,0.00,,,0.04,781.000000,,2013-05-26 19:11:00,
2013-05-26 15:22:00,87.0,64.0,-100.00,East,81,10.0,17.0,46,0.00,,,0.04,781.000000,,2013-05-26 19:22:00,
2013-05-26 15:32:00,87.0,64.0,-100.00,East,81,10.0,17.0,46,0.00,,,0.04,781.000000,,2013-05-26 19:32:00,
2013-05-26 15:52:00,87.0,64.0,-100.00,East,92,9.0,16.0,47,0.00,,,0.04,835.000000,,2013-05-26 19:52:00,
2013-05-26 16:02:00,87.0,64.0,-100.00,East,92,9.0,16.0,47,0.00,,,0.04,835.000000,,2013-05-26 20:02:00,
2013-05-26 16:11:00,87.0,64.0,-100.00,East,92,9.0,16.0,47,0.00,,,0.04,835.000000,,2013-05-26 20:11:00,
2013-05-26 16:22:00,87.0,64.0,-100.00,East,92,9.0,16.0,47,0.00,,,0.04,835.000000,,2013-05-26 20:22:00,
2013-05-26 16:32:00,87.0,64.0,-100.00,East,92,9.0,16.0,47,0.00,,,0.04,835.000000,,2013-05-26 20:32:00,
2013-05-26 16:53:00,86.0,66.0,-100.00,East,83,9.0,15.0,51,0.00,,,0.04,707.000000,,2013-05-26 20:53:00,
2013-05-26 17:02:00,86.0,66.0,-100.00,East,83,9.0,15.0,51,0.00,,,0.04,707.000000,,2013-05-26 21:02:00,
2013-05-26 17:12:00,86.0,66.0,-100.00,East,83,9.0,15.0,51,0.00,,,0.04,707.000000,,2013-05-26 21:12:00,
2013-05-26 17:22:00,86.0,66.0,-100.00,East,83,9.0,15.0,51,0.00,,,0.04,707.000000,,2013-05-26 21:22:00,
2013-05-26 17:33:00,86.0,66.0,-100.00,East,83,9.0,15.0,51,0.00,,,0.04,707.000000,,2013-05-26 21:33:00,
2013-05-26 17:53:00,86.0,65.0,-100.00,East,84,7.0,16.0,49,0.00,,,0.04,516.000000,,2013-05-26 21:53:00,
2013-05-26 18:03:00,86.0,65.0,-100.00,East,84,7.0,16.0,49,0.00,,,0.04,516.000000,,2013-05-26 22:03:00,
2013-05-26 18:12:00,86.0,65.0,-100.00,East,84,7.0,16.0,49,0.00,,,0.04,516.000000,,2013-05-26 22:12:00,
2013-05-26 18:23:00,86.0,65.0,-100.00,East,84,7.0,16.0,49,0.00,,,0.04,516.000000,,2013-05-26 22:23:00,
2013-05-26 18:33:00,86.0,65.0,-100.00,East,84,7.0,16.0,49,0.00,,,0.04,516.000000,,2013-05-26 22:33:00,
2013-05-26 19:02:00,84.0,68.0,-100.00,East,79,8.0,14.0,59,0.00,,,0.00,305.000000,,2013-05-26 23:02:00,
2013-05-26 19:12:00,84.0,68.0,-100.00,East,79,8.0,14.0,59,0.00,,,0.00,305.000000,,2013-05-26 23:12:00,
2013-05-26 19:22:00,84.0,68.0,-100.00,East,79,8.0,14.0,59,0.00,,,0.00,305.000000,,2013-05-26 23:22:00,
2013-05-26 19:32:00,84.0,68.0,-100.00,East,79,8.0,14.0,59,0.00,,,0.00,305.000000,,2013-05-26 23:32:00,
2013-05-26 20:02:00,81.0,68.0,-100.00,ENE,74,11.0,19.0,65,0.00,,,0.00,105.000000,,2013-05-27 00:02:00,
2013-05-26 20:11:00,81.0,68.0,-100.00,ENE,74,11.0,19.0,65,0.00,,,0.00,105.000000,,2013-05-27 00:11:00,
2013-05-26 20:22:00,81.0,68.0,-100.00,ENE,74,11.0,19.0,65,0.00,,,0.00,105.000000,,2013-05-27 00:22:00,
2013-05-26 20:32:00,81.0,68.0,-100.00,ENE,74,11.0,19.0,65,0.00,,,0.00,105.000000,,2013-05-27 00:32:00,
2013-05-26 21:01:00,80.0,66.0,-100.00,East,79,11.0,20.0,63,0.00,,,0.00,12.000000,,2013-05-27 01:01:00,
2013-05-26 21:11:00,80.0,66.0,-100.00,East,79,11.0,20.0,63,0.00,,,0.00,12.000000,,2013-05-27 01:11:00,
2013-05-26 21:22:00,80.0,66.0,-100.00,East,79,11.0,20.0,63,0.00,,,0.00,12.000000,,2013-05-27 01:22:00,
2013-05-26 21:32:00,80.0,66.0,-100.00,East,79,11.0,20.0,63,0.00,,,0.00,12.000000,,2013-05-27 01:32:00,
2013-05-26 22:02:00,80.0,67.0,-100.00,ENE,75,11.0,21.0,64,0.00,,,0.00,0.000000,,2013-05-27 02:02:00,
2013-05-26 22:11:00,80.0,67.0,-100.00,ENE,75,11.0,21.0,64,0.00,,,0.00,0.000000,,2013-05-27 02:11:00,
2013-05-26 22:22:00,80.0,67.0,-100.00,ENE,75,11.0,21.0,64,0.00,,,0.00,0.000000,,2013-05-27 02:22:00,
2013-05-26 22:32:00,80.0,67.0,-100.00,ENE,75,11.0,21.0,64,0.00,,,0.00,0.000000,,2013-05-27 02:32:00,
2013-05-26 22:52:00,80.0,66.0,-100.00,East,86,12.0,23.0,63,0.00,,,0.00,0.000000,,2013-05-27 02:52:00,
2013-05-26 23:02:00,80.0,66.0,-100.00,East,86,12.0,23.0,63,0.00,,,0.00,0.000000,,2013-05-27 03:02:00,
2013-05-26 23:11:00,80.0,66.0,-100.00,East,86,12.0,23.0,63,0.00,,,0.00,0.000000,,2013-05-27 03:11:00,
2013-05-26 23:21:00,80.0,66.0,-100.00,East,86,12.0,23.0,63,0.00,,,0.00,0.000000,,2013-05-27 03:21:00,
2013-05-26 23:33:00,80.0,66.0,-100.00,East,86,12.0,23.0,63,0.00,,,0.00,0.000000,,2013-05-27 03:33:00,
2013-05-26 23:53:00,79.0,67.0,-100.00,East,79,12.0,22.0,66,0.00,,,0.00,0.000000,,2013-05-27 03:53:00,